[[{"header":{"parameterUnit":"m.s-1","parameterCategory":1,"la1":30.2991,"la2":30.254,"lo1":-89.0895,"lo2":-89.0444,"dy":0.0017,"dx":0.0017,"nx":28,"ny":28,"refTime":"2026-03-04T03:00:00:Z","depth":0,"parameterNumber":2,"parameterNumberName":"U-component_of_WINDS"},"data":[0,0,0,0,0,0,0,0,0,0,0,0,0,0,0,0,0,0,0,0,0,0,0,0,0,0,0,0,0,0,0,0,0,0,0,0,0,0,0,0,0,0,0,0,0,0,0,0,0,0,0,0,0,0,0,0,0,0,-4.273,-4.273,0,-4.2761,-4.2761,-4.2762,-4.2686,-4.2684,-4.2681,-4.2679,-4.271,-4.2713,-4.2716,0,0,0,0,0,0,0,0,0,0,0,0,0,-4.2605,-4.2608,-4.273,-4.273,-4.273,-4.2761,-4.2761,-4.2762,-4.2687,-4.2684,-4.2681,-4.2678,-4.2709,-4.2713,-4.2717,0,0,0,0,0,0,0,0,0,0,0,0,0,-4.265,-4.2609,-4.2729,-4.2697,-4.2694,-4.2761,-4.2761,-4.2762,-4.2687,-4.2684,-4.268,-4.2677,-4.2708,-4.2713,-4.2717,-4.2817,0,0,-4.2731,-4.2733,0,0,0,0,0,0,0,0,-4.2648,-4.2655,-4.2701,-4.2699,-4.2696,-4.2716,-4.2729,-4.278,-4.2688,-4.269,-4.2679,-4.2675,-4.2715,-4.2719,-4.2733,-4.2818,-4.282,-4.2732,-4.2734,-4.2736,-4.2738,0,0,0,0,0,0,0,-4.2645,-4.2653,-4.2742,-4.2702,-4.2699,-4.2681,-4.2683,-4.2738,-4.2722,-4.2689,-4.2684,-4.2689,-4.2713,-4.2728,-4.2733,-4.282,-4.2731,-4.2735,-4.2738,-4.274,-4.2992,-4.2995,0,0,0,0,0,0,-4.2646,-4.2651,-4.2741,-4.2743,-4.2663,-4.2686,-4.2688,-4.2713,-4.2721,-4.2719,-4.2692,-4.2685,-4.2722,-4.2727,-4.2734,-4.2851,-4.2736,-4.2741,-4.2743,-4.2988,-4.2992,-4.2997,0,0,0,0,0,0,-4.2644,-4.2655,-4.274,-4.2696,-4.2705,-4.2692,-4.272,-4.2716,-4.2731,-4.2723,-4.272,-4.271,-4.272,-4.2727,-4.2797,-4.2851,-4.2743,-4.2747,-4.2983,-4.2989,-4.2995,-4.3088,0,0,0,0,0,0,-4.264,-4.2654,-4.2692,-4.2697,-4.2708,-4.2803,-4.2723,-4.2719,-4.2739,-4.2731,-4.274,-4.2738,-4.2717,-4.2791,-4.2802,-4.2856,-4.275,-4.2978,-4.2986,-4.2993,-4.308,-4.3096,-4.311,0,0,0,0,0,-4.2636,-4.2716,-4.2694,-4.2705,-4.2754,-4.2806,-4.2812,-4.2787,-4.2744,-4.2781,-4.2777,-4.2737,-4.2844,-4.2799,-4.281,-4.2866,-4.2974,-4.2984,-4.2992,-4.3073,-4.3093,-4.311,0,0,0,0,0,0,-4.2716,-4.2716,-4.2691,-4.2775,-4.2791,-4.2793,-4.2839,-4.2809,-4.2837,-4.2828,-4.2796,-4.2799,-4.2875,-4.2878,-4.2827,-4.2964,-4.2902,-4.2914,-4.2959,-4.2978,-4.2993,-4.299,-4.2754,0,0,0,0,0,-4.2744,-4.2786,-4.2784,-4.2858,-4.2867,-4.2853,-4.2874,-4.2854,-4.2869,-4.2875,-4.2876,-4.2892,-4.2929,-4.2954,-4.2988,-4.3081,-4.3082,-4.3125,-4.3141,-4.3153,-4.3163,-4.3213,-4.3232,-4.3026,-4.3026,-4.3025,0,0,-4.28,-4.2806,-4.2834,-4.2874,-4.2884,-4.2929,-4.2858,-4.2908,-4.2941,-4.2883,-4.2949,-4.2951,-4.2967,-4.3049,-4.3085,-4.3053,-4.3221,-4.3164,-4.3174,-4.3177,-4.3224,-4.3243,-4.3261,-4.3032,-4.3031,-4.303,0,0,-4.2926,-4.2935,-4.2998,-4.301,-4.3027,-4.3017,-4.3033,-4.304,-4.3039,-4.3105,-4.3063,-4.3102,-4.3167,-4.318,-4.3196,-4.3331,-4.3296,-4.3344,-4.3422,-4.3471,-4.3487,-4.3501,-4.3549,-4.3567,-4.3354,-4.3354,-4.3354,0,-4.2994,-4.306,-4.3034,-4.3088,-4.3107,-4.3058,-4.3122,-4.3135,-4.3162,-4.3177,-4.3142,-4.3223,-4.3231,-4.3316,-4.3349,-4.3363,-4.338,-4.3341,-4.3487,-4.3501,-4.3514,-4.3559,-4.3577,-4.336,-4.3359,-4.3358,-4.3358,0,-4.3143,-4.3189,-4.3238,-4.3267,-4.3292,-4.335,-4.3334,-4.3363,-4.3342,-4.3336,-4.3406,-4.3414,-4.3448,-4.3468,-4.3447,-4.3551,-4.3531,-4.3492,-4.3428,-4.354,-4.3581,-4.3599,-4.3367,-4.3365,-4.3364,-4.3362,0,0,-4.3316,-4.3332,-4.335,-4.3363,-4.338,-4.3415,-4.3473,-4.3508,-4.3533,-4.3555,-4.3602,-4.366,-4.3625,-4.3642,-4.3624,-4.3667,-4.3774,-4.3623,-4.3623,-4.365,-4.3889,-4.3916,-4.3937,-4.3752,-4.3756,-4.3758,-4.3887,0,-4.344,-4.3538,-4.3518,-4.3614,-4.3657,-4.3614,-4.3664,-4.368,-4.3677,-4.3714,-4.371,-4.3752,-4.3703,-4.3713,-4.3755,-4.3752,-4.3821,-4.3743,-4.3795,-4.3797,-4.379,-4.3959,-4.3987,-4.4108,-4.3903,-4.3906,-4.3908,0,-4.3596,-4.3625,-4.3725,-4.3737,-4.3754,-4.38,-4.3831,-4.3867,-4.3885,-4.388,-4.3902,-4.3876,-4.3933,-4.3872,-4.3951,-4.3898,-4.3919,-4.3922,-4.3926,-4.3928,-4.3858,-4.3964,-4.4146,-4.4164,-4.3934,-4.3932,-4.393,0,-4.3711,-4.3775,-4.3844,-4.3857,-4.3872,-4.3905,-4.3913,-4.3928,-4.3951,-4.398,-4.3994,-4.4029,-4.4048,-4.4076,-4.406,-4.4016,-4.4142,-4.4079,-4.4139,-4.414,-4.4165,-4.4163,-4.4352,-4.4183,-4.4182,-4.4182,-4.4182,0,-4.385,-4.3913,-4.3896,-4.3938,-4.4008,-4.3986,-4.4056,-4.4059,-4.4073,-4.4116,-4.4081,-4.4122,-4.4099,-4.4139,-4.4127,-4.4195,-4.4204,-4.4201,-4.4197,-4.4203,-4.4203,-4.4214,-4.4205,-4.4187,-4.4186,-4.4185,-4.4184,0,-4.3989,-4.398,-4.4052,-4.4062,-4.4066,-4.4118,-4.4126,-4.4166,-4.4162,-4.4216,-4.4228,-4.4222,-4.4266,-4.4255,-4.4303,-4.4295,-4.438,-4.4366,-4.4374,-4.437,-4.4431,-4.4425,-4.4631,-4.4657,-4.4473,-4.4474,-4.4476,0,-4.4077,-4.4124,-4.4141,-4.4167,-4.4178,-4.4221,-4.4245,-4.4226,-4.4253,-4.4279,-4.4316,-4.4358,-4.439,-4.4464,-4.4463,-4.4501,-4.4486,-4.4557,-4.4491,-4.4497,-4.4486,-4.4482,-4.4487,-4.4568,-4.4571,-4.4572,-4.4574,0,-4.4234,-4.4228,-4.4264,-4.43,-4.433,-4.4357,-4.4381,-4.4404,-4.4388,-4.442,-4.4466,-4.4491,-4.4542,-4.4583,-4.4618,-4.4627,-4.4598,-4.4595,-4.4611,-4.4616,-4.4618,-4.4617,-4.4407,-4.4589,-4.4588,-4.4587,-4.4586,-4.4585,-4.4348,-4.4389,-4.4408,-4.445,-4.4466,-4.449,-4.4528,-4.4531,-4.4569,-4.4608,-4.4596,-4.4648,-4.4668,-4.4712,-4.4725,-4.4766,-4.4739,-4.4762,-4.4768,-4.4773,-4.478,-4.4614,-4.4773,-4.4772,-4.4772,-4.4771,-4.4771,0,-4.4502,-4.4513,-4.4552,-4.4587,-4.4621,-4.4593,-4.4619,-4.4649,-4.4695,-4.4716,-4.475,-4.4803,-4.4845,-4.485,-4.4889,-4.4921,-4.4909,-4.4932,-4.4928,-4.493,-4.4803,-4.4784,-4.4941,-4.4941,-4.4941,-4.4941,-4.4941,-4.4941,-4.4586,-4.4654,-4.4651,-4.4727,-4.4737,-4.4789,-4.4806,-4.4828,-4.4845,-4.4906,-4.4941,-4.4945,-4.496,-4.5,-4.5038,-4.5038,-4.5053,-4.5081,-4.5077,-4.4956,-4.4939,-4.4923,-4.4906,-4.5085,-4.5086,-4.5201,-4.5202,-4.5203]},{"header":{"parameterUnit":"m.s-1","parameterCategory":1,"la1":30.2991,"la2":30.254,"lo1":-89.0895,"lo2":-89.0444,"dy":0.0017,"dx":0.0017,"nx":28,"ny":28,"refTime":"2026-03-04T03:00:00:Z","depth":0,"parameterNumber":3,"parameterNumberName":"V-component_of_WINDS"},"data":[0,0,0,0,0,0,0,0,0,0,0,0,0,0,0,0,0,0,0,0,0,0,0,0,0,0,0,0,0,0,0,0,0,0,0,0,0,0,0,0,0,0,0,0,0,0,0,0,0,0,0,0,0,0,0,0,0,0,0.8467,0.8467,0,0.8487,0.8487,0.8487,0.8514,0.8515,0.8515,0.8515,0.8533,0.8533,0.8533,0,0,0,0,0,0,0,0,0,0,0,0,0,0.8451,0.8451,0.8467,0.8467,0.8467,0.8487,0.8487,0.8487,0.8514,0.8515,0.8515,0.8516,0.8533,0.8533,0.8533,0,0,0,0,0,0,0,0,0,0,0,0,0,0.8463,0.8451,0.8467,0.8483,0.8485,0.8487,0.8487,0.8487,0.8514,0.8515,0.8515,0.8516,0.8533,0.8533,0.8533,0.8519,0,0,0.8533,0.8533,0,0,0,0,0,0,0,0,0.8462,0.8463,0.848,0.8482,0.8484,0.8499,0.8488,0.8498,0.8514,0.8503,0.8515,0.8516,0.8521,0.8522,0.8524,0.852,0.8521,0.8533,0.8533,0.8533,0.8533,0,0,0,0,0,0,0,0.8461,0.8463,0.8474,0.848,0.8483,0.8489,0.8491,0.849,0.8507,0.8504,0.8506,0.8508,0.8522,0.8524,0.8524,0.8521,0.8533,0.8533,0.8533,0.8533,0.851,0.851,0,0,0,0,0,0,0.8458,0.8462,0.8474,0.8475,0.8474,0.8489,0.8492,0.8493,0.8508,0.851,0.8507,0.8509,0.8523,0.8524,0.8525,0.8512,0.8533,0.8533,0.8533,0.8511,0.851,0.851,0,0,0,0,0,0,0.8458,0.8459,0.8473,0.8469,0.8471,0.8488,0.849,0.8493,0.8495,0.851,0.8513,0.8506,0.8524,0.8525,0.8522,0.8513,0.8533,0.8533,0.8512,0.8511,0.851,0.8485,0,0,0,0,0,0,0.8457,0.8459,0.8454,0.8469,0.8471,0.8469,0.8489,0.8493,0.8496,0.8498,0.851,0.8513,0.8525,0.8521,0.8522,0.8514,0.8533,0.8513,0.8511,0.851,0.8487,0.8483,0.848,0,0,0,0,0,0.8457,0.8445,0.8453,0.8455,0.8466,0.8469,0.847,0.8485,0.8495,0.849,0.85,0.8512,0.8514,0.8521,0.8521,0.8513,0.8513,0.8512,0.851,0.8488,0.8484,0.848,0,0,0,0,0,0,0.8426,0.8447,0.8457,0.8449,0.8457,0.8473,0.8467,0.848,0.8484,0.8486,0.8503,0.8506,0.85,0.8506,0.8513,0.8502,0.8516,0.8514,0.8498,0.8495,0.8492,0.849,0.8533,0,0,0,0,0,0.8419,0.842,0.8438,0.843,0.8433,0.845,0.8451,0.8463,0.8471,0.8474,0.8484,0.8491,0.8493,0.8494,0.8497,0.8488,0.8492,0.8483,0.848,0.8477,0.8475,0.8473,0.847,0.8505,0.8505,0.8505,0,0,0.8403,0.8415,0.8414,0.8424,0.8431,0.8432,0.8452,0.8452,0.8453,0.8473,0.8472,0.8479,0.8488,0.8482,0.848,0.8487,0.8467,0.8475,0.8473,0.8473,0.8471,0.8468,0.8465,0.8504,0.8504,0.8504,0,0,0.8376,0.8384,0.838,0.8387,0.8399,0.8411,0.841,0.8424,0.8431,0.8429,0.8446,0.8447,0.845,0.8457,0.8461,0.8439,0.8451,0.844,0.8423,0.8421,0.8418,0.8416,0.8409,0.8406,0.8438,0.8438,0.8438,0,0.8355,0.8357,0.8375,0.8375,0.8379,0.84,0.8396,0.8402,0.8414,0.8416,0.8425,0.8431,0.8439,0.8436,0.8431,0.8433,0.8433,0.8438,0.8417,0.8415,0.8413,0.8407,0.8404,0.8437,0.8437,0.8437,0.8437,0,0.8332,0.8333,0.8328,0.8341,0.8345,0.8342,0.836,0.8362,0.8373,0.8384,0.8383,0.8393,0.84,0.84,0.841,0.8399,0.8404,0.8414,0.8428,0.8408,0.8403,0.84,0.8435,0.8435,0.8436,0.8436,0,0,0.8284,0.8309,0.8307,0.8314,0.833,0.8331,0.833,0.8338,0.834,0.8348,0.8348,0.8352,0.8363,0.8367,0.8379,0.8376,0.8361,0.8388,0.8388,0.8383,0.8351,0.8343,0.834,0.8369,0.8369,0.8368,0.8351,0,0.826,0.826,0.8278,0.8273,0.8276,0.8298,0.8297,0.8307,0.8318,0.8321,0.8333,0.8336,0.8349,0.8353,0.8351,0.8363,0.8355,0.8364,0.8369,0.8369,0.8367,0.8338,0.8329,0.8312,0.8349,0.8348,0.8348,0,0.8231,0.824,0.8236,0.8255,0.8257,0.8256,0.8266,0.8269,0.8282,0.829,0.8296,0.831,0.8311,0.8324,0.8326,0.8333,0.8336,0.8342,0.8342,0.8343,0.8358,0.8338,0.8306,0.8304,0.8345,0.8345,0.8345,0,0.8198,0.8209,0.8209,0.8214,0.8235,0.8235,0.8243,0.8257,0.8261,0.827,0.8273,0.8281,0.8285,0.8291,0.8307,0.8315,0.8308,0.8322,0.8315,0.8315,0.8312,0.8312,0.8281,0.8313,0.8314,0.8314,0.8314,0,0.817,0.8167,0.8195,0.8195,0.8193,0.8213,0.8211,0.8221,0.8233,0.8236,0.8255,0.8257,0.8278,0.8282,0.8294,0.8295,0.8296,0.8303,0.8307,0.8302,0.8301,0.8304,0.8306,0.8313,0.8313,0.8313,0.8313,0,0.8132,0.8151,0.8152,0.8173,0.8179,0.8177,0.8195,0.8196,0.8209,0.8212,0.8214,0.8234,0.824,0.8257,0.8267,0.8276,0.8273,0.8279,0.827,0.8272,0.8264,0.8265,0.8234,0.8231,0.8265,0.8265,0.8264,0,0.8113,0.8112,0.8134,0.8138,0.8146,0.8152,0.8157,0.8178,0.8183,0.8198,0.8198,0.8206,0.8214,0.8224,0.8239,0.8247,0.8254,0.8243,0.8255,0.8251,0.8255,0.8255,0.8256,0.824,0.8239,0.8239,0.8238,0,0.8077,0.8087,0.8095,0.8107,0.8113,0.8123,0.8134,0.8136,0.8159,0.8164,0.8172,0.8178,0.819,0.8199,0.821,0.8219,0.8233,0.8235,0.8234,0.8229,0.8224,0.8228,0.8263,0.8235,0.8235,0.8236,0.8236,0.8236,0.8049,0.805,0.8067,0.8075,0.8086,0.8096,0.8099,0.8114,0.8121,0.8133,0.8145,0.8152,0.8166,0.8184,0.8192,0.8198,0.8205,0.8203,0.8202,0.8202,0.82,0.8223,0.82,0.82,0.82,0.82,0.82,0,0.8016,0.8028,0.8036,0.8052,0.8059,0.8073,0.8086,0.8091,0.8098,0.811,0.8119,0.8129,0.8138,0.8155,0.8165,0.8167,0.8174,0.8169,0.8169,0.8172,0.8193,0.8193,0.8164,0.8164,0.8164,0.8164,0.8164,0.8164,0.7999,0.8002,0.8014,0.8023,0.8036,0.8044,0.8051,0.8061,0.8071,0.8082,0.8091,0.8102,0.8117,0.8129,0.8138,0.8143,0.8147,0.814,0.8147,0.8166,0.817,0.8173,0.8174,0.814,0.814,0.8125,0.8125,0.8125]}]]